{"data":{"norad_id":65534,"intl_designator":"2025-200Q","name":"STARLINK-35125","alt_names":[],"object_type":"PAYLOAD","status":"ACTIVE","operator":null,"country":"US","launch_date":"2025-09-06","launch_site_code":"AFWTR","launch_vehicle":null,"mission":null,"orbit_class":"UNKNOWN","rcs_meters":null,"size_class":null,"mass_kg":null,"dimensions":null,"purposes":["comms"],"wikipedia_slug":null,"has_3d_model":false,"image_url":null,"decayed_at":null,"tle_current":{"epoch":"2026-05-25T03:57:34.894080Z","epoch_age_seconds":54662,"freshness":"FRESH","line1":"1 65534U 25200Q   26145.16498720  .00004038  00000+0  28372-3 0  9996","line2":"2 65534  97.4466 214.7443 0001551 142.9965 217.1369 15.05656688 40636","mean_motion":15.05656688,"eccentricity":0.0001551,"inclination_deg":97.4466,"raan_deg":214.7443,"arg_perigee_deg":142.9965,"mean_anomaly_deg":217.1369,"bstar":0.00028372,"rev_number":4063,"period_min":95.639332091885,"perigee_km":548.41616429125,"apogee_km":550.56511438497,"semimajor_km":6927.6276393381,"source":"CELESTRAK","updated_at":"2026-05-25T13:38:20.849163Z"}}}